Sacramento, CA

1:22 AM PDT on April 23, 2017 (GMT -0700)
Sacramento Executive

Weather History for KSAC - February, 2013

Change the Weather History Date:

Saturday, February 9, 2013

  Actual Average Record
Temperature  
Mean Temperature 46 °F -  
Max Temperature 58 °F 59 °F 73 °F (2016)
Min Temperature 34 °F 41 °F 30 °F (2003)
Degree Days  
Heating Degree Days 19    
Cooling Degree Days 0    
Moisture  
Dew Point 28 °F    
Average Humidity 52    
Maximum Humidity 70    
Minimum Humidity 33    
Precipitation  
Precipitation 0.00 in 0.13 in 2.25 in (1962)
Month to date precipitation 0.02 1.15  
Year to date precipitation 0.98 4.79  
Since 1 July precipitation 12.27  
Sea Level Pressure  
Sea Level Pressure 30.04 in    
Wind  
Wind Speed 6 mph (NNW)    
Max Wind Speed 13 mph    
Max Gust Speed 16 mph    
Visibility 10 miles    
Events      
T = Trace of Precipitation, MM = Missing Value Source: NWS Daily Summary

Daily Weather History Graph

Daily Weather History Graph

Search for Another Location

Airport or City:

Trip Planner

Search our weather history database for the weather conditions in past years. The results will help you decide how hot, cold, wet, or windy it might be!

Date:

Astronomy

Feb. 09, 2013 Rise Set
Actual Time 7:03 AM PST 5:37 PM PST
Civil Twilight 6:35 AM PST 6:05 PM PST
Nautical Twilight 6:04 AM PST 6:36 PM PST
Astronomical Twilight 5:33 AM PST 7:07 PM PST
Moon 6:18 AM PST (2/9) 5:26 PM PST (2/9)
Length of Visible Light 11h 29m
Length of Day
10h 34m
Waning Crescent, 0% of the Moon is Illuminated
Feb 9
Waning Crescent
Feb 9
New
Feb 17
First Quarter
Feb 25
Full
Mar 4
Last Quarter

Hourly Weather History & Observations

Time (PST) Temp. Windchill Dew Point Humidity Pressure Visibility Wind Dir Wind Speed Gust Speed Precip Events Conditions
12:53 AM 43.0 °F 37.2 °F 27.0 °F 53% 29.97 in 10.0 mi NNW 10.4 mph - N/A   Clear
1:53 AM 42.1 °F 37.1 °F 27.0 °F 55% 29.98 in 10.0 mi NNW 8.1 mph - N/A   Clear
2:53 AM 41.0 °F 34.7 °F 27.0 °F 57% 29.99 in 10.0 mi NNW 10.4 mph - N/A   Clear
3:53 AM 39.0 °F 36.8 °F 27.0 °F 62% 29.99 in 10.0 mi NW 3.5 mph - N/A   Clear
4:53 AM 37.0 °F 33.3 °F 27.0 °F 67% 30.00 in 10.0 mi NW 4.6 mph - N/A   Clear
5:53 AM 35.1 °F 30.1 °F 26.1 °F 70% 30.00 in 10.0 mi NNW 5.8 mph - N/A   Clear
6:53 AM 35.1 °F 32.2 °F 26.1 °F 70% 30.02 in 10.0 mi NW 3.5 mph - N/A   Clear
7:53 AM 35.1 °F - 27.0 °F 72% 30.05 in 10.0 mi Calm Calm - N/A   Clear
8:53 AM 42.1 °F - 28.9 °F 60% 30.06 in 10.0 mi Calm Calm - N/A   Clear
9:53 AM 46.9 °F - 28.9 °F 50% 30.06 in 10.0 mi Variable 3.5 mph - N/A   Clear
10:53 AM 48.9 °F - 28.0 °F 44% 30.07 in 10.0 mi North 3.5 mph - N/A   Clear
11:53 AM 52.0 °F - 27.0 °F 38% 30.07 in 10.0 mi North 5.8 mph - N/A   Clear
12:53 PM 53.1 °F - 28.9 °F 40% 30.05 in 10.0 mi NNW 8.1 mph - N/A   Clear
1:53 PM 55.9 °F - 30.0 °F 37% 30.04 in 10.0 mi North 8.1 mph 16.1 mph N/A   Clear
2:53 PM 57.0 °F - 28.9 °F 34% 30.04 in 10.0 mi North 5.8 mph - N/A   Clear
3:53 PM 55.9 °F - 28.0 °F 34% 30.04 in 10.0 mi NW 4.6 mph - N/A   Clear
4:53 PM 55.9 °F - 27.0 °F 33% 30.03 in 10.0 mi SE 5.8 mph - N/A   Clear
5:53 PM 51.1 °F - 28.0 °F 41% 30.05 in 10.0 mi ESE 5.8 mph - N/A   Clear
6:53 PM 46.0 °F - 28.9 °F 51% 30.06 in 10.0 mi Calm Calm - N/A   Clear
7:53 PM 43.0 °F - 28.9 °F 58% 30.08 in 10.0 mi Calm Calm - N/A   Clear
8:53 PM 41.0 °F - 30.0 °F 65% 30.09 in 10.0 mi Calm Calm - N/A   Clear
9:53 PM 39.0 °F 36.8 °F 30.0 °F 70% 30.09 in 10.0 mi ESE 3.5 mph - N/A   Clear
10:53 PM 41.0 °F - 30.0 °F 65% 30.09 in 10.0 mi Calm Calm - N/A   Clear
11:53 PM 39.0 °F 35.7 °F 28.9 °F 67% 30.10 in 10.0 mi East 4.6 mph - N/A   Clear